Time,TemperatureF,DewpointF,PressureIn,WindDirection,WindDirectionDegrees,WindSpeedMPH,WindSpeedGustMPH,Humidity,HourlyPrecipIn,Conditions,Clouds,dailyrainin,SoftwareType,DateUTC
2013-04-22 00:00:00,45.3,37.9,30.47,ENE,61,3.0,5.0,75,0.00,,,0.00,WUHU216DAVISVP2,2013-04-22 04:00:00,
2013-04-22 00:01:00,45.3,37.9,30.47,NE,54,3.0,5.0,75,0.00,,,0.00,WUHU216DAVISVP2,2013-04-22 04:01:00,
2013-04-22 00:06:00,45.1,37.6,30.47,NE,49,3.0,6.0,75,0.00,,,0.00,WUHU216DAVISVP2,2013-04-22 04:06:00,
2013-04-22 00:11:00,44.9,37.8,30.47,ENE,65,4.0,6.0,76,0.00,,,0.00,WUHU216DAVISVP2,2013-04-22 04:11:00,
2013-04-22 00:16:00,44.8,37.8,30.47,ENE,60,5.0,5.0,76,0.00,,,0.00,WUHU216DAVISVP2,2013-04-22 04:16:00,
2013-04-22 00:21:00,44.8,37.8,30.47,ENE,70,6.0,6.0,76,0.00,,,0.00,WUHU216DAVISVP2,2013-04-22 04:21:00,
2013-04-22 00:26:00,44.8,37.8,30.47,ENE,67,6.0,8.0,76,0.00,,,0.00,WUHU216DAVISVP2,2013-04-22 04:26:00,
2013-04-22 00:30:00,44.9,37.8,30.47,ENE,68,4.0,8.0,76,0.00,,,0.00,WUHU216DAVISVP2,2013-04-22 04:30:00,
2013-04-22 00:31:00,44.9,37.8,30.47,ENE,57,6.0,8.0,76,0.00,,,0.00,WUHU216DAVISVP2,2013-04-22 04:31:00,
2013-04-22 00:36:00,44.9,37.8,30.47,ENE,60,5.0,7.0,76,0.00,,,0.00,WUHU216DAVISVP2,2013-04-22 04:36:00,
2013-04-22 00:41:00,44.7,37.7,30.47,ENE,62,4.0,7.0,76,0.00,,,0.00,WUHU216DAVISVP2,2013-04-22 04:41:00,
2013-04-22 00:46:00,44.7,37.7,30.47,ENE,59,4.0,6.0,76,0.00,,,0.00,WUHU216DAVISVP2,2013-04-22 04:46:00,
2013-04-22 00:51:00,44.6,37.9,30.47,ENE,75,5.0,6.0,77,0.00,,,0.00,WUHU216DAVISVP2,2013-04-22 04:51:00,
2013-04-22 00:56:00,44.6,37.9,30.47,ENE,63,5.0,7.0,77,0.00,,,0.00,WUHU216DAVISVP2,2013-04-22 04:56:00,
2013-04-22 01:00:00,44.5,37.7,30.47,ENE,68,4.0,7.0,77,0.00,,,0.00,WUHU216DAVISVP2,2013-04-22 05:00:00,
2013-04-22 01:01:00,44.5,37.8,30.47,ENE,60,4.0,7.0,77,0.00,,,0.00,WUHU216DAVISVP2,2013-04-22 05:01:00,
2013-04-22 01:06:00,44.3,37.6,30.47,ENE,57,5.0,6.0,77,0.00,,,0.00,WUHU216DAVISVP2,2013-04-22 05:06:00,
2013-04-22 01:11:00,44.2,37.8,30.47,ENE,58,5.0,7.0,78,0.00,,,0.00,WUHU216DAVISVP2,2013-04-22 05:11:00,
2013-04-22 01:16:00,43.9,37.5,30.47,ENE,59,3.0,7.0,78,0.00,,,0.00,WUHU216DAVISVP2,2013-04-22 05:16:00,
2013-04-22 01:21:00,43.3,37.3,30.47,ENE,60,4.0,7.0,79,0.00,,,0.00,WUHU216DAVISVP2,2013-04-22 05:21:00,
2013-04-22 01:26:00,43.1,37.3,30.47,ENE,67,5.0,8.0,80,0.00,,,0.00,WUHU216DAVISVP2,2013-04-22 05:26:00,
2013-04-22 01:30:00,43.2,37.4,30.47,ENE,68,5.0,9.0,80,0.00,,,0.00,WUHU216DAVISVP2,2013-04-22 05:30:00,
2013-04-22 01:31:00,43.4,37.4,30.47,ENE,58,6.0,11.0,79,0.00,,,0.00,WUHU216DAVISVP2,2013-04-22 05:31:00,
2013-04-22 01:36:00,43.7,37.0,30.47,ENE,60,8.0,12.0,77,0.00,,,0.00,WUHU216DAVISVP2,2013-04-22 05:36:00,
2013-04-22 01:41:00,44.1,37.1,30.47,ENE,75,8.0,12.0,76,0.00,,,0.00,WUHU216DAVISVP2,2013-04-22 05:41:00,
2013-04-22 01:46:00,44.1,37.0,30.47,ESE,102,5.0,12.0,76,0.00,,,0.00,WUHU216DAVISVP2,2013-04-22 05:46:00,
2013-04-22 01:51:00,43.9,36.9,30.47,ENE,70,5.0,12.0,76,0.00,,,0.00,WUHU216DAVISVP2,2013-04-22 05:51:00,
2013-04-22 01:56:00,43.5,37.1,30.47,ENE,64,4.0,12.0,78,0.00,,,0.00,WUHU216DAVISVP2,2013-04-22 05:56:00,
2013-04-22 02:00:00,43.3,36.9,30.47,ENE,68,5.0,12.0,78,0.00,,,0.00,WUHU216DAVISVP2,2013-04-22 06:00:00,
2013-04-22 02:01:00,43.3,36.9,30.47,ENE,72,8.0,13.0,78,0.00,,,0.00,WUHU216DAVISVP2,2013-04-22 06:01:00,
2013-04-22 02:06:00,43.4,36.7,30.47,ENE,70,6.0,13.0,77,0.00,,,0.00,WUHU216DAVISVP2,2013-04-22 06:06:00,
2013-04-22 02:11:00,43.4,36.7,30.47,ENE,63,5.0,12.0,77,0.00,,,0.00,WUHU216DAVISVP2,2013-04-22 06:11:00,
2013-04-22 02:16:00,43.2,36.5,30.47,East,81,0.0,12.0,77,0.00,,,0.00,WUHU216DAVISVP2,2013-04-22 06:16:00,
2013-04-22 02:21:00,43.0,36.6,30.47,ENE,63,4.0,10.0,78,0.00,,,0.00,WUHU216DAVISVP2,2013-04-22 06:21:00,
2013-04-22 02:26:00,42.5,36.5,30.46,ENE,65,5.0,10.0,79,0.00,,,0.00,WUHU216DAVISVP2,2013-04-22 06:26:00,
2013-04-22 02:30:00,42.2,36.5,30.46,ENE,68,5.0,13.0,80,0.00,,,0.00,WUHU216DAVISVP2,2013-04-22 06:30:00,
2013-04-22 02:31:00,42.0,36.6,30.46,ENE,63,5.0,7.0,81,0.00,,,0.00,WUHU216DAVISVP2,2013-04-22 06:31:00,
2013-04-22 02:36:00,41.8,36.7,30.46,ENE,68,5.0,7.0,82,0.00,,,0.00,WUHU216DAVISVP2,2013-04-22 06:36:00,
2013-04-22 02:41:00,41.6,36.8,30.46,ENE,63,5.0,6.0,83,0.00,,,0.00,WUHU216DAVISVP2,2013-04-22 06:41:00,
2013-04-22 02:46:00,41.3,36.5,30.46,ENE,64,6.0,7.0,83,0.00,,,0.00,WUHU216DAVISVP2,2013-04-22 06:46:00,
2013-04-22 02:51:00,41.1,36.6,30.46,ENE,65,4.0,8.0,84,0.00,,,0.00,WUHU216DAVISVP2,2013-04-22 06:51:00,
2013-04-22 02:56:00,40.9,36.4,30.46,NE,55,4.0,8.0,84,0.00,,,0.00,WUHU216DAVISVP2,2013-04-22 06:56:00,
2013-04-22 03:00:00,40.9,36.4,30.45,ENE,68,4.0,8.0,84,0.00,,,0.00,WUHU216DAVISVP2,2013-04-22 07:00:00,
2013-04-22 03:01:00,40.8,36.3,30.45,ENE,65,5.0,7.0,84,0.00,,,0.00,WUHU216DAVISVP2,2013-04-22 07:01:00,
2013-04-22 03:06:00,40.7,36.2,30.45,ENE,76,7.0,8.0,84,0.00,,,0.00,WUHU216DAVISVP2,2013-04-22 07:06:00,
2013-04-22 03:11:00,40.6,36.1,30.45,ENE,65,5.0,8.0,84,0.00,,,0.00,WUHU216DAVISVP2,2013-04-22 07:11:00,
2013-04-22 03:16:00,40.4,35.9,30.45,ENE,57,2.0,8.0,84,0.00,,,0.00,WUHU216DAVISVP2,2013-04-22 07:16:00,
2013-04-22 03:21:00,40.3,36.1,30.45,ENE,71,4.0,7.0,85,0.00,,,0.00,WUHU216DAVISVP2,2013-04-22 07:21:00,
2013-04-22 03:26:00,40.2,36.1,30.45,ENE,68,5.0,8.0,85,0.00,,,0.00,WUHU216DAVISVP2,2013-04-22 07:26:00,
2013-04-22 03:30:00,40.1,36.0,30.45,ENE,68,5.0,8.0,85,0.00,,,0.00,WUHU216DAVISVP2,2013-04-22 07:30:00,
2013-04-22 03:31:00,40.1,35.9,30.45,ENE,62,5.0,8.0,85,0.00,,,0.00,WUHU216DAVISVP2,2013-04-22 07:31:00,
2013-04-22 03:36:00,40.0,36.1,30.45,ENE,61,4.0,9.0,86,0.00,,,0.00,WUHU216DAVISVP2,2013-04-22 07:36:00,
2013-04-22 03:41:00,39.9,36.0,30.45,NE,44,4.0,9.0,86,0.00,,,0.00,WUHU216DAVISVP2,2013-04-22 07:41:00,
2013-04-22 03:46:00,39.8,35.9,30.45,NE,50,3.0,8.0,86,0.00,,,0.00,WUHU216DAVISVP2,2013-04-22 07:46:00,
2013-04-22 03:51:00,39.8,35.9,30.45,NE,54,3.0,8.0,86,0.00,,,0.00,WUHU216DAVISVP2,2013-04-22 07:51:00,
2013-04-22 03:56:00,39.8,36.2,30.45,NE,37,2.0,7.0,87,0.00,,,0.00,WUHU216DAVISVP2,2013-04-22 07:56:00,
2013-04-22 04:00:00,39.9,36.3,30.46,ENE,68,4.0,9.0,87,0.00,,,0.00,WUHU216DAVISVP2,2013-04-22 08:00:00,
2013-04-22 04:01:00,39.8,35.9,30.45,ENE,71,3.0,7.0,86,0.00,,,0.00,WUHU216DAVISVP2,2013-04-22 08:01:00,
2013-04-22 04:06:00,39.7,35.8,30.45,NE,53,5.0,7.0,86,0.00,,,0.00,WUHU216DAVISVP2,2013-04-22 08:06:00,
2013-04-22 04:11:00,39.8,35.9,30.45,NE,36,4.0,9.0,86,0.00,,,0.00,WUHU216DAVISVP2,2013-04-22 08:11:00,
2013-04-22 04:16:00,39.7,35.5,30.45,NNE,30,4.0,9.0,85,0.00,,,0.00,WUHU216DAVISVP2,2013-04-22 08:16:00,
2013-04-22 04:21:00,39.7,35.5,30.45,ENE,60,2.0,8.0,85,0.00,,,0.00,WUHU216DAVISVP2,2013-04-22 08:21:00,
2013-04-22 04:26:00,39.5,35.4,30.45,ENE,58,4.0,8.0,85,0.00,,,0.00,WUHU216DAVISVP2,2013-04-22 08:26:00,
2013-04-22 04:30:00,39.5,35.4,30.45,NE,45,4.0,9.0,85,0.00,,,0.00,WUHU216DAVISVP2,2013-04-22 08:30:00,
2013-04-22 04:31:00,39.4,35.2,30.45,NNE,23,5.0,8.0,85,0.00,,,0.00,WUHU216DAVISVP2,2013-04-22 08:31:00,
2013-04-22 04:36:00,39.3,35.1,30.45,NNE,25,4.0,8.0,85,0.00,,,0.00,WUHU216DAVISVP2,2013-04-22 08:36:00,
2013-04-22 04:41:00,39.2,35.1,30.45,NE,35,4.0,8.0,85,0.00,,,0.00,WUHU216DAVISVP2,2013-04-22 08:41:00,
2013-04-22 04:46:00,39.0,34.9,30.45,NE,39,8.0,8.0,85,0.00,,,0.00,WUHU216DAVISVP2,2013-04-22 08:46:00,
2013-04-22 04:51:00,38.9,34.8,30.45,NE,39,4.0,10.0,85,0.00,,,0.00,WUHU216DAVISVP2,2013-04-22 08:51:00,
2013-04-22 04:56:00,38.7,34.8,30.45,NE,47,5.0,10.0,86,0.00,,,0.00,WUHU216DAVISVP2,2013-04-22 08:56:00,
2013-04-22 05:00:00,38.7,34.9,30.45,NE,45,5.0,10.0,86,0.00,,,0.00,WUHU216DAVISVP2,2013-04-22 09:00:00,
2013-04-22 05:01:00,38.6,34.7,30.44,NE,39,4.0,9.0,86,0.00,,,0.00,WUHU216DAVISVP2,2013-04-22 09:01:00,
2013-04-22 05:06:00,38.5,34.7,30.44,NE,49,5.0,8.0,86,0.00,,,0.00,WUHU216DAVISVP2,2013-04-22 09:06:00,
2013-04-22 05:11:00,38.3,34.5,30.44,NE,39,7.0,8.0,86,0.00,,,0.00,WUHU216DAVISVP2,2013-04-22 09:11:00,
2013-04-22 05:16:00,38.1,34.3,30.44,NNE,20,10.0,10.0,86,0.00,,,0.00,WUHU216DAVISVP2,2013-04-22 09:16:00,
2013-04-22 05:21:00,38.1,34.5,30.44,NNE,13,6.0,10.0,87,0.00,,,0.00,WUHU216DAVISVP2,2013-04-22 09:21:00,
2013-04-22 05:26:00,38.0,34.4,30.45,NNE,26,2.0,10.0,87,0.00,,,0.00,WUHU216DAVISVP2,2013-04-22 09:26:00,
2013-04-22 05:30:00,37.9,34.4,30.44,NE,45,4.0,10.0,87,0.00,,,0.00,WUHU216DAVISVP2,2013-04-22 09:30:00,
2013-04-22 05:31:00,37.8,34.3,30.44,NE,35,3.0,9.0,87,0.00,,,0.00,WUHU216DAVISVP2,2013-04-22 09:31:00,
2013-04-22 05:36:00,37.8,34.2,30.45,NNW,330,3.0,9.0,87,0.00,,,0.00,WUHU216DAVISVP2,2013-04-22 09:36:00,
2013-04-22 05:41:00,37.9,34.4,30.44,NE,41,6.0,12.0,87,0.00,,,0.00,WUHU216DAVISVP2,2013-04-22 09:41:00,
2013-04-22 05:46:00,37.9,34.1,30.45,ENE,62,5.0,12.0,86,0.00,,,0.00,WUHU216DAVISVP2,2013-04-22 09:46:00,
2013-04-22 05:51:00,37.9,34.3,30.45,North,359,2.0,11.0,87,0.00,,,0.00,WUHU216DAVISVP2,2013-04-22 09:51:00,
2013-04-22 05:56:00,37.8,34.3,30.45,NNW,340,5.0,11.0,87,0.00,,,0.00,WUHU216DAVISVP2,2013-04-22 09:56:00,
2013-04-22 06:00:00,37.8,34.3,30.45,NE,45,4.0,12.0,87,0.00,,,0.00,WUHU216DAVISVP2,2013-04-22 10:00:00,
2013-04-22 06:01:00,37.8,34.2,30.45,NE,49,4.0,7.0,87,0.00,,,0.00,WUHU216DAVISVP2,2013-04-22 10:01:00,
2013-04-22 06:06:00,37.8,34.2,30.45,NNE,17,4.0,8.0,87,0.00,,,0.00,WUHU216DAVISVP2,2013-04-22 10:06:00,
2013-04-22 06:11:00,37.7,34.2,30.46,NNE,19,3.0,8.0,87,0.00,,,0.00,WUHU216DAVISVP2,2013-04-22 10:11:00,
2013-04-22 06:16:00,37.7,34.1,30.46,NE,39,5.0,7.0,87,0.00,,,0.00,WUHU216DAVISVP2,2013-04-22 10:16:00,
2013-04-22 06:21:00,37.6,34.0,30.46,ENE,63,3.0,7.0,87,0.00,,,0.00,WUHU216DAVISVP2,2013-04-22 10:21:00,
2013-04-22 06:26:00,37.5,34.0,30.46,NE,44,0.0,5.0,87,0.00,,,0.00,WUHU216DAVISVP2,2013-04-22 10:26:00,
2013-04-22 06:30:00,37.4,33.9,30.46,NE,45,3.0,8.0,87,0.00,,,0.00,WUHU216DAVISVP2,2013-04-22 10:30:00,
2013-04-22 06:31:00,37.3,33.8,30.46,ENE,64,1.0,5.0,87,0.00,,,0.00,WUHU216DAVISVP2,2013-04-22 10:31:00,
2013-04-22 06:36:00,37.2,33.7,30.46,North,355,4.0,5.0,87,0.00,,,0.00,WUHU216DAVISVP2,2013-04-22 10:36:00,
2013-04-22 06:41:00,37.1,33.9,30.46,NNE,22,2.0,5.0,88,0.00,,,0.00,WUHU216DAVISVP2,2013-04-22 10:41:00,
2013-04-22 06:46:00,37.1,33.8,30.47,NNE,16,3.0,5.0,88,0.00,,,0.00,WUHU216DAVISVP2,2013-04-22 10:46:00,
2013-04-22 06:51:00,37.1,33.9,30.47,NNE,30,1.0,5.0,88,0.00,,,0.00,WUHU216DAVISVP2,2013-04-22 10:51:00,
2013-04-22 06:56:00,37.3,33.8,30.48,NNE,30,2.0,6.0,87,0.00,,,0.00,WUHU216DAVISVP2,2013-04-22 10:56:00,
2013-04-22 07:00:00,37.4,33.9,30.48,NE,45,2.0,6.0,87,0.00,,,0.00,WUHU216DAVISVP2,2013-04-22 11:00:00,
2013-04-22 07:01:00,37.5,34.0,30.48,NE,34,1.0,6.0,87,0.00,,,0.00,WUHU216DAVISVP2,2013-04-22 11:01:00,
2013-04-22 07:06:00,37.6,34.1,30.48,NE,43,5.0,6.0,87,0.00,,,0.00,WUHU216DAVISVP2,2013-04-22 11:06:00,
2013-04-22 07:11:00,37.8,34.0,30.48,NE,36,4.0,6.0,86,0.00,,,0.00,WUHU216DAVISVP2,2013-04-22 11:11:00,
2013-04-22 07:16:00,38.0,34.2,30.48,NE,50,5.0,6.0,86,0.00,,,0.00,WUHU216DAVISVP2,2013-04-22 11:16:00,
2013-04-22 07:21:00,38.3,34.2,30.48,NE,53,4.0,7.0,85,0.00,,,0.00,WUHU216DAVISVP2,2013-04-22 11:21:00,
2013-04-22 07:26:00,38.6,34.5,30.48,NNE,18,5.0,9.0,85,0.00,,,0.00,WUHU216DAVISVP2,2013-04-22 11:26:00,
2013-04-22 07:30:00,38.8,34.4,30.48,NE,45,4.0,9.0,84,0.00,,,0.00,WUHU216DAVISVP2,2013-04-22 11:30:00,
2013-04-22 07:31:00,38.9,34.5,30.48,NE,47,5.0,10.0,84,0.00,,,0.00,WUHU216DAVISVP2,2013-04-22 11:31:00,
2013-04-22 07:36:00,39.1,34.7,30.48,NNE,13,6.0,10.0,84,0.00,,,0.00,WUHU216DAVISVP2,2013-04-22 11:36:00,
2013-04-22 07:41:00,39.3,34.6,30.48,NE,50,7.0,11.0,83,0.00,,,0.00,WUHU216DAVISVP2,2013-04-22 11:41:00,
2013-04-22 07:46:00,39.6,34.9,30.48,NNE,19,4.0,11.0,83,0.00,,,0.00,WUHU216DAVISVP2,2013-04-22 11:46:00,
2013-04-22 07:51:00,39.9,34.9,30.48,NE,50,11.0,12.0,82,0.00,,,0.00,WUHU216DAVISVP2,2013-04-22 11:51:00,
2013-04-22 07:56:00,40.0,34.7,30.47,NE,46,6.0,14.0,81,0.00,,,0.00,WUHU216DAVISVP2,2013-04-22 11:56:00,
2013-04-22 08:00:00,40.2,34.8,30.47,NE,45,6.0,14.0,81,0.00,,,0.00,WUHU216DAVISVP2,2013-04-22 12:00:00,
2013-04-22 08:01:00,40.3,34.9,30.47,NE,47,5.0,14.0,81,0.00,,,0.00,WUHU216DAVISVP2,2013-04-22 12:01:00,
2013-04-22 08:06:00,40.6,35.2,30.47,NW,325,7.0,13.0,81,0.00,,,0.00,WUHU216DAVISVP2,2013-04-22 12:06:00,
2013-04-22 08:11:00,40.8,35.1,30.47,NE,36,7.0,14.0,80,0.00,,,0.00,WUHU216DAVISVP2,2013-04-22 12:11:00,
2013-04-22 08:16:00,41.1,35.1,30.47,NNE,26,6.0,14.0,79,0.00,,,0.00,WUHU216DAVISVP2,2013-04-22 12:16:00,
2013-04-22 08:21:00,41.5,35.5,30.47,NE,39,13.0,14.0,79,0.00,,,0.00,WUHU216DAVISVP2,2013-04-22 12:21:00,
2013-04-22 08:26:00,41.6,34.6,30.47,NE,48,4.0,14.0,76,0.00,,,0.00,WUHU216DAVISVP2,2013-04-22 12:26:00,
2013-04-22 08:30:00,41.8,34.5,30.47,NE,45,7.0,14.0,75,0.00,,,0.00,WUHU216DAVISVP2,2013-04-22 12:30:00,
2013-04-22 08:31:00,41.9,34.9,30.48,NE,56,8.0,14.0,76,0.00,,,0.00,WUHU216DAVISVP2,2013-04-22 12:31:00,
2013-04-22 08:36:00,42.3,34.3,30.48,NNE,33,12.0,14.0,73,0.00,,,0.00,WUHU216DAVISVP2,2013-04-22 12:36:00,
2013-04-22 08:41:00,42.3,34.3,30.47,NNE,16,13.0,13.0,73,0.00,,,0.00,WUHU216DAVISVP2,2013-04-22 12:41:00,
2013-04-22 08:46:00,42.6,34.3,30.47,NNE,20,6.0,14.0,72,0.00,,,0.00,WUHU216DAVISVP2,2013-04-22 12:46:00,
2013-04-22 08:51:00,42.7,34.0,30.48,NNE,30,7.0,16.0,71,0.00,,,0.00,WUHU216DAVISVP2,2013-04-22 12:51:00,
2013-04-22 08:56:00,43.1,34.0,30.47,NE,45,6.0,16.0,70,0.00,,,0.00,WUHU216DAVISVP2,2013-04-22 12:56:00,
2013-04-22 09:00:00,43.0,33.9,30.47,NE,45,9.0,16.0,70,0.00,,,0.00,WUHU216DAVISVP2,2013-04-22 13:00:00,
2013-04-22 09:01:00,43.1,34.0,30.47,NNE,29,12.0,16.0,70,0.00,,,0.00,WUHU216DAVISVP2,2013-04-22 13:01:00,
2013-04-22 09:06:00,43.1,33.7,30.47,NE,53,12.0,18.0,69,0.00,,,0.00,WUHU216DAVISVP2,2013-04-22 13:06:00,
2013-04-22 09:11:00,43.2,33.8,30.47,ENE,60,5.0,18.0,69,0.00,,,0.00,WUHU216DAVISVP2,2013-04-22 13:11:00,
2013-04-22 09:16:00,43.7,33.9,30.48,ENE,72,13.0,17.0,68,0.00,,,0.00,WUHU216DAVISVP2,2013-04-22 13:16:00,
2013-04-22 09:21:00,44.3,34.9,30.48,NE,48,9.0,17.0,69,0.00,,,0.00,WUHU216DAVISVP2,2013-04-22 13:21:00,
2013-04-22 09:26:00,44.5,33.6,30.48,NE,47,18.0,19.0,65,0.00,,,0.00,WUHU216DAVISVP2,2013-04-22 13:26:00,
2013-04-22 09:30:00,44.5,33.5,30.47,NE,45,10.0,19.0,65,0.00,,,0.00,WUHU216DAVISVP2,2013-04-22 13:30:00,
2013-04-22 09:31:00,44.7,33.4,30.47,NE,46,8.0,19.0,64,0.00,,,0.00,WUHU216DAVISVP2,2013-04-22 13:31:00,
2013-04-22 09:36:00,44.9,32.8,30.47,NE,39,11.0,20.0,62,0.00,,,0.00,WUHU216DAVISVP2,2013-04-22 13:36:00,
2013-04-22 09:41:00,45.1,32.9,30.47,ENE,57,11.0,20.0,62,0.00,,,0.00,WUHU216DAVISVP2,2013-04-22 13:41:00,
2013-04-22 09:46:00,45.3,32.7,30.47,NE,51,10.0,18.0,61,0.00,,,0.00,WUHU216DAVISVP2,2013-04-22 13:46:00,
2013-04-22 09:51:00,45.6,32.6,30.47,ENE,61,9.0,18.0,60,0.00,,,0.00,WUHU216DAVISVP2,2013-04-22 13:51:00,
2013-04-22 09:56:00,46.1,32.6,30.47,SE,130,5.0,17.0,59,0.00,,,0.00,WUHU216DAVISVP2,2013-04-22 13:56:00,
2013-04-22 10:00:00,46.3,31.9,30.47,ENE,68,10.0,20.0,57,0.00,,,0.00,WUHU216DAVISVP2,2013-04-22 14:00:00,
2013-04-22 10:01:00,46.2,30.5,30.47,NE,43,10.0,19.0,54,0.00,,,0.00,WUHU216DAVISVP2,2013-04-22 14:01:00,
2013-04-22 10:06:00,46.6,31.7,30.47,NE,36,6.0,19.0,56,0.00,,,0.00,WUHU216DAVISVP2,2013-04-22 14:06:00,
2013-04-22 10:11:00,46.7,31.4,30.47,NE,34,13.0,17.0,55,0.00,,,0.00,WUHU216DAVISVP2,2013-04-22 14:11:00,
2013-04-22 10:16:00,46.7,31.4,30.47,NE,53,8.0,17.0,55,0.00,,,0.00,WUHU216DAVISVP2,2013-04-22 14:16:00,
2013-04-22 10:21:00,47.2,31.4,30.47,NE,49,6.0,17.0,54,0.00,,,0.00,WUHU216DAVISVP2,2013-04-22 14:21:00,
2013-04-22 10:26:00,47.4,31.1,30.47,NE,54,11.0,17.0,53,0.00,,,0.00,WUHU216DAVISVP2,2013-04-22 14:26:00,
2013-04-22 10:30:00,47.4,31.6,30.47,NE,45,10.0,19.0,54,0.00,,,0.00,WUHU216DAVISVP2,2013-04-22 14:30:00,
2013-04-22 10:31:00,47.5,30.2,30.47,NE,39,4.0,16.0,51,0.00,,,0.00,WUHU216DAVISVP2,2013-04-22 14:31:00,
2013-04-22 10:36:00,47.5,30.7,30.46,NE,43,12.0,16.0,52,0.00,,,0.00,WUHU216DAVISVP2,2013-04-22 14:36:00,
2013-04-22 10:40:00,47.6,31.3,30.46,NNE,25,9.0,15.0,53,0.00,,,0.00,WUHU216DAVISVP2,2013-04-22 14:40:00,
2013-04-22 10:45:00,48.3,32.4,30.46,East,87,10.0,15.0,54,0.00,,,0.00,WUHU216DAVISVP2,2013-04-22 14:45:00,
2013-04-22 10:50:00,48.3,28.9,30.46,ENE,61,10.0,15.0,47,0.00,,,0.00,WUHU216DAVISVP2,2013-04-22 14:50:00,
2013-04-22 10:55:00,48.8,29.4,30.45,NE,51,12.0,16.0,47,0.00,,,0.00,WUHU216DAVISVP2,2013-04-22 14:55:00,
2013-04-22 11:00:00,49.2,30.3,30.45,East,90,13.0,16.0,48,0.00,,,0.00,WUHU216DAVISVP2,2013-04-22 15:00:00,
2013-04-22 11:05:00,49.5,31.1,30.45,NNE,30,7.0,16.0,49,0.00,,,0.00,WUHU216DAVISVP2,2013-04-22 15:05:00,
2013-04-22 11:10:00,49.6,27.9,30.45,NE,41,5.0,18.0,43,0.00,,,0.00,WUHU216DAVISVP2,2013-04-22 15:10:00,
2013-04-22 11:15:00,49.6,28.4,30.44,ENE,63,12.0,18.0,44,0.00,,,0.00,WUHU216DAVISVP2,2013-04-22 15:15:00,
2013-04-22 11:20:00,49.9,29.9,30.44,NE,51,10.0,16.0,46,0.00,,,0.00,WUHU216DAVISVP2,2013-04-22 15:20:00,
2013-04-22 11:25:00,50.3,31.3,30.44,NE,36,11.0,16.0,48,0.00,,,0.00,WUHU216DAVISVP2,2013-04-22 15:25:00,
2013-04-22 11:30:00,50.3,28.5,30.43,ENE,76,14.0,17.0,43,0.00,,,0.00,WUHU216DAVISVP2,2013-04-22 15:30:00,
2013-04-22 11:35:00,50.2,29.1,30.43,NNE,25,4.0,17.0,44,0.00,,,0.00,WUHU216DAVISVP2,2013-04-22 15:35:00,
2013-04-22 11:40:00,50.8,27.2,30.43,NNE,20,13.0,16.0,40,0.00,,,0.00,WUHU216DAVISVP2,2013-04-22 15:40:00,
2013-04-22 11:45:00,50.8,27.8,30.43,ENE,58,10.0,18.0,41,0.00,,,0.00,WUHU216DAVISVP2,2013-04-22 15:45:00,
2013-04-22 11:50:00,50.8,30.1,30.43,NW,326,3.0,18.0,45,0.00,,,0.00,WUHU216DAVISVP2,2013-04-22 15:50:00,
2013-04-22 11:55:00,51.7,28.6,30.42,NNW,346,3.0,16.0,41,0.00,,,0.00,WUHU216DAVISVP2,2013-04-22 15:55:00,
2013-04-22 12:00:00,51.7,28.0,30.42,NE,50,10.0,16.0,40,0.00,,,0.00,WUHU216DAVISVP2,2013-04-22 16:00:00,
2013-04-22 12:05:00,51.8,26.8,30.42,NNW,336,4.0,16.0,38,0.00,,,0.00,WUHU216DAVISVP2,2013-04-22 16:05:00,
2013-04-22 12:10:00,52.0,27.0,30.42,North,11,7.0,16.0,38,0.00,,,0.00,WUHU216DAVISVP2,2013-04-22 16:10:00,
2013-04-22 12:15:00,52.2,26.5,30.41,NNE,29,9.0,16.0,37,0.00,,,0.00,WUHU216DAVISVP2,2013-04-22 16:15:00,
2013-04-22 12:20:00,52.4,27.3,30.41,NNE,33,10.0,16.0,38,0.00,,,0.00,WUHU216DAVISVP2,2013-04-22 16:20:00,
2013-04-22 12:25:00,52.6,28.3,30.41,NE,43,13.0,17.0,39,0.00,,,0.00,WUHU216DAVISVP2,2013-04-22 16:25:00,
2013-04-22 12:30:00,53.4,27.6,30.41,ENE,57,6.0,17.0,37,0.00,,,0.00,WUHU216DAVISVP2,2013-04-22 16:30:00,
2013-04-22 12:35:00,53.3,26.1,30.41,NNE,23,12.0,16.0,35,0.00,,,0.00,WUHU216DAVISVP2,2013-04-22 16:35:00,
2013-04-22 12:40:00,53.0,25.8,30.40,NE,49,12.0,16.0,35,0.00,,,0.00,WUHU216DAVISVP2,2013-04-22 16:40:00,
2013-04-22 12:45:00,53.0,25.8,30.39,NNE,21,6.0,15.0,35,0.00,,,0.00,WUHU216DAVISVP2,2013-04-22 16:45:00,
2013-04-22 12:50:00,53.8,26.5,30.39,NNE,26,8.0,15.0,35,0.00,,,0.00,WUHU216DAVISVP2,2013-04-22 16:50:00,
2013-04-22 12:55:00,53.9,26.8,30.39,ENE,58,10.0,14.0,35,0.00,,,0.00,WUHU216DAVISVP2,2013-04-22 16:55:00,
2013-04-22 13:00:00,55.0,27.8,30.39,NNE,33,9.0,14.0,35,0.00,,,0.00,WUHU216DAVISVP2,2013-04-22 17:00:00,
2013-04-22 13:05:00,54.6,26.6,30.38,North,3,3.0,16.0,34,0.00,,,0.00,WUHU216DAVISVP2,2013-04-22 17:05:00,
2013-04-22 13:10:00,55.1,26.3,30.38,NE,49,9.0,16.0,33,0.00,,,0.00,WUHU216DAVISVP2,2013-04-22 17:10:00,
2013-04-22 13:15:00,55.3,27.9,30.38,ENE,65,5.0,15.0,35,0.00,,,0.00,WUHU216DAVISVP2,2013-04-22 17:15:00,
2013-04-22 13:20:00,55.4,28.7,30.37,North,359,11.0,15.0,36,0.00,,,0.00,WUHU216DAVISVP2,2013-04-22 17:20:00,
2013-04-22 13:25:00,55.2,28.0,30.37,NNE,25,9.0,15.0,35,0.00,,,0.00,WUHU216DAVISVP2,2013-04-22 17:25:00,
2013-04-22 13:30:00,55.5,27.3,30.37,ENE,57,7.0,16.0,34,0.00,,,0.00,WUHU216DAVISVP2,2013-04-22 17:30:00,
2013-04-22 13:35:00,55.4,27.3,30.36,North,359,5.0,16.0,34,0.00,,,0.00,WUHU216DAVISVP2,2013-04-22 17:35:00,
2013-04-22 13:40:00,56.0,27.3,30.36,SE,129,6.0,15.0,33,0.00,,,0.00,WUHU216DAVISVP2,2013-04-22 17:40:00,
2013-04-22 13:45:00,56.6,26.1,30.36,SE,145,8.0,22.0,31,0.00,,,0.00,WUHU216DAVISVP2,2013-04-22 17:45:00,
2013-04-22 13:50:00,56.7,28.4,30.35,ENE,57,5.0,22.0,34,0.00,,,0.00,WUHU216DAVISVP2,2013-04-22 17:50:00,
2013-04-22 13:55:00,56.9,27.9,30.35,ENE,59,13.0,20.0,33,0.00,,,0.00,WUHU216DAVISVP2,2013-04-22 17:55:00,
2013-04-22 14:00:00,56.2,27.4,30.35,NNE,27,4.0,20.0,33,0.00,,,0.00,WUHU216DAVISVP2,2013-04-22 18:00:00,
2013-04-22 14:05:00,56.5,27.5,30.35,ESE,105,13.0,17.0,33,0.00,,,0.00,WUHU216DAVISVP2,2013-04-22 18:05:00,
2013-04-22 14:10:00,56.8,25.7,30.35,NE,50,12.0,17.0,30,0.00,,,0.00,WUHU216DAVISVP2,2013-04-22 18:10:00,
2013-04-22 14:15:00,57.0,26.4,30.35,NNE,26,4.0,18.0,31,0.00,,,0.00,WUHU216DAVISVP2,2013-04-22 18:15:00,
2013-04-22 14:20:00,56.9,24.7,30.35,NNE,30,11.0,18.0,29,0.00,,,0.00,WUHU216DAVISVP2,2013-04-22 18:20:00,
2013-04-22 14:25:00,57.3,25.1,30.35,NE,56,9.0,18.0,29,0.00,,,0.00,WUHU216DAVISVP2,2013-04-22 18:25:00,
2013-04-22 14:30:00,57.2,27.4,30.34,ENE,63,14.0,18.0,32,0.00,,,0.00,WUHU216DAVISVP2,2013-04-22 18:30:00,
2013-04-22 14:35:00,56.9,25.6,30.34,NE,49,6.0,18.0,30,0.00,,,0.00,WUHU216DAVISVP2,2013-04-22 18:35:00,
2013-04-22 14:40:00,57.4,26.8,30.34,ESE,123,4.0,18.0,31,0.00,,,0.00,WUHU216DAVISVP2,2013-04-22 18:40:00,
2013-04-22 14:45:00,57.8,28.9,30.34,NE,36,5.0,17.0,33,0.00,,,0.00,WUHU216DAVISVP2,2013-04-22 18:45:00,
2013-04-22 14:50:00,58.5,28.5,30.33,NE,43,11.0,17.0,32,0.00,,,0.00,WUHU216DAVISVP2,2013-04-22 18:50:00,
2013-04-22 14:55:00,58.2,25.9,30.33,NE,56,13.0,16.0,29,0.00,,,0.00,WUHU216DAVISVP2,2013-04-22 18:55:00,
2013-04-22 15:00:00,58.1,25.8,30.33,ENE,63,15.0,18.0,29,0.00,,,0.00,WUHU216DAVISVP2,2013-04-22 19:00:00,
2013-04-22 15:05:00,58.2,27.5,30.33,NNE,19,5.0,18.0,31,0.00,,,0.00,WUHU216DAVISVP2,2013-04-22 19:05:00,
2013-04-22 15:10:00,58.1,26.6,30.32,North,6,1.0,18.0,30,0.00,,,0.00,WUHU216DAVISVP2,2013-04-22 19:10:00,
2013-04-22 15:15:00,58.9,24.8,30.33,NNE,27,10.0,17.0,27,0.00,,,0.00,WUHU216DAVISVP2,2013-04-22 19:15:00,
2013-04-22 15:20:00,59.0,23.1,30.32,East,84,12.0,21.0,25,0.00,,,0.00,WUHU216DAVISVP2,2013-04-22 19:20:00,
2013-04-22 15:25:00,59.1,21.2,30.33,ENE,75,8.0,21.0,23,0.00,,,0.00,WUHU216DAVISVP2,2013-04-22 19:25:00,
2013-04-22 15:30:00,59.5,21.5,30.32,East,81,10.0,21.0,23,0.00,,,0.00,WUHU216DAVISVP2,2013-04-22 19:30:00,
2013-04-22 15:35:00,58.9,22.0,30.32,ENE,71,13.0,19.0,24,0.00,,,0.00,WUHU216DAVISVP2,2013-04-22 19:35:00,
2013-04-22 15:40:00,59.0,22.1,30.32,SSW,198,1.0,16.0,24,0.00,,,0.00,WUHU216DAVISVP2,2013-04-22 19:40:00,
2013-04-22 15:45:00,59.1,21.2,30.32,ENE,58,7.0,16.0,23,0.00,,,0.00,WUHU216DAVISVP2,2013-04-22 19:45:00,
2013-04-22 15:50:00,59.2,22.3,30.32,NE,41,9.0,16.0,24,0.00,,,0.00,WUHU216DAVISVP2,2013-04-22 19:50:00,
2013-04-22 15:55:00,59.7,24.6,30.31,NE,55,12.0,21.0,26,0.00,,,0.00,WUHU216DAVISVP2,2013-04-22 19:55:00,
2013-04-22 16:00:00,59.5,24.4,30.31,SSE,151,5.0,21.0,26,0.00,,,0.00,WUHU216DAVISVP2,2013-04-22 20:00:00,
2013-04-22 16:05:00,60.0,25.0,30.31,ENE,67,7.0,21.0,26,0.00,,,0.00,WUHU216DAVISVP2,2013-04-22 20:05:00,
2013-04-22 16:10:00,59.8,22.8,30.30,NE,56,8.0,20.0,24,0.00,,,0.00,WUHU216DAVISVP2,2013-04-22 20:10:00,
2013-04-22 16:15:00,59.3,24.2,30.30,NE,56,6.0,15.0,26,0.00,,,0.00,WUHU216DAVISVP2,2013-04-22 20:15:00,
2013-04-22 16:20:00,59.1,25.8,30.30,NE,41,8.0,15.0,28,0.00,,,0.00,WUHU216DAVISVP2,2013-04-22 20:20:00,
2013-04-22 16:25:00,59.3,26.0,30.30,ENE,65,7.0,13.0,28,0.00,,,0.00,WUHU216DAVISVP2,2013-04-22 20:25:00,
2013-04-22 16:30:00,59.0,25.7,30.29,ENE,60,10.0,13.0,28,0.00,,,0.00,WUHU216DAVISVP2,2013-04-22 20:30:00,
2013-04-22 16:35:00,59.2,24.1,30.29,NE,53,7.0,13.0,26,0.00,,,0.00,WUHU216DAVISVP2,2013-04-22 20:35:00,
2013-04-22 16:40:00,59.2,25.0,30.29,NE,53,7.0,15.0,27,0.00,,,0.00,WUHU216DAVISVP2,2013-04-22 20:40:00,
2013-04-22 16:45:00,59.8,27.3,30.29,NNE,32,5.0,15.0,29,0.00,,,0.00,WUHU216DAVISVP2,2013-04-22 20:45:00,
2013-04-22 16:50:00,60.2,26.9,30.29,NNE,12,6.0,14.0,28,0.00,,,0.00,WUHU216DAVISVP2,2013-04-22 20:50:00,
2013-04-22 16:55:00,60.1,26.9,30.28,ENE,70,5.0,14.0,28,0.00,,,0.00,WUHU216DAVISVP2,2013-04-22 20:55:00,
2013-04-22 17:00:00,60.1,27.5,30.29,NE,36,5.0,18.0,29,0.00,,,0.00,WUHU216DAVISVP2,2013-04-22 21:00:00,
2013-04-22 17:05:00,60.0,25.7,30.29,NNE,25,6.0,18.0,27,0.00,,,0.00,WUHU216DAVISVP2,2013-04-22 21:05:00,
2013-04-22 17:10:00,60.3,26.0,30.28,NE,53,11.0,16.0,27,0.00,,,0.00,WUHU216DAVISVP2,2013-04-22 21:10:00,
2013-04-22 17:15:00,60.3,26.9,30.28,ENE,58,14.0,16.0,28,0.00,,,0.00,WUHU216DAVISVP2,2013-04-22 21:15:00,
2013-04-22 17:20:00,60.0,26.6,30.28,NNE,23,7.0,15.0,28,0.00,,,0.00,WUHU216DAVISVP2,2013-04-22 21:20:00,
2013-04-22 17:25:00,60.1,25.8,30.28,NNE,27,7.0,15.0,27,0.00,,,0.00,WUHU216DAVISVP2,2013-04-22 21:25:00,
2013-04-22 17:30:00,60.3,26.9,30.28,NNE,16,10.0,14.0,28,0.00,,,0.00,WUHU216DAVISVP2,2013-04-22 21:30:00,
2013-04-22 17:35:00,60.4,27.1,30.28,NE,34,8.0,14.0,28,0.00,,,0.00,WUHU216DAVISVP2,2013-04-22 21:35:00,
2013-04-22 17:40:00,60.4,26.1,30.28,NE,51,8.0,12.0,27,0.00,,,0.00,WUHU216DAVISVP2,2013-04-22 21:40:00,
2013-04-22 17:45:00,60.0,26.6,30.28,ENE,58,11.0,14.0,28,0.00,,,0.00,WUHU216DAVISVP2,2013-04-22 21:45:00,
2013-04-22 17:50:00,60.2,27.8,30.28,NE,53,5.0,14.0,29,0.00,,,0.00,WUHU216DAVISVP2,2013-04-22 21:50:00,
2013-04-22 17:55:00,59.9,27.3,30.28,ENE,59,7.0,15.0,29,0.00,,,0.00,WUHU216DAVISVP2,2013-04-22 21:55:00,
2013-04-22 18:00:00,59.9,27.3,30.28,ENE,61,11.0,15.0,29,0.00,,,0.00,WUHU216DAVISVP2,2013-04-22 22:00:00,
2013-04-22 18:05:00,59.9,28.2,30.28,NNE,23,3.0,14.0,30,0.00,,,0.00,WUHU216DAVISVP2,2013-04-22 22:05:00,
2013-04-22 18:10:00,60.0,29.0,30.28,ENE,58,9.0,14.0,31,0.00,,,0.00,WUHU216DAVISVP2,2013-04-22 22:10:00,
2013-04-22 18:15:00,60.0,29.0,30.28,ENE,60,7.0,14.0,31,0.00,,,0.00,WUHU216DAVISVP2,2013-04-22 22:15:00,
2013-04-22 18:20:00,59.8,29.7,30.28,ENE,58,10.0,14.0,32,0.00,,,0.00,WUHU216DAVISVP2,2013-04-22 22:20:00,
2013-04-22 18:25:00,59.5,29.4,30.28,NE,51,7.0,14.0,32,0.00,,,0.00,WUHU216DAVISVP2,2013-04-22 22:25:00,
2013-04-22 18:30:00,59.5,30.9,30.28,NNE,23,7.0,13.0,34,0.00,,,0.00,WUHU216DAVISVP2,2013-04-22 22:30:00,
2013-04-22 18:35:00,59.5,30.1,30.28,ENE,60,11.0,13.0,33,0.00,,,0.00,WUHU216DAVISVP2,2013-04-22 22:35:00,
2013-04-22 18:40:00,59.7,30.3,30.28,ENE,58,7.0,12.0,33,0.00,,,0.00,WUHU216DAVISVP2,2013-04-22 22:40:00,
2013-04-22 18:45:00,59.6,30.2,30.28,NE,53,9.0,12.0,33,0.00,,,0.00,WUHU216DAVISVP2,2013-04-22 22:45:00,
2013-04-22 18:50:00,59.3,30.2,30.28,ENE,65,6.0,13.0,33,0.00,,,0.00,WUHU216DAVISVP2,2013-04-22 22:50:00,
2013-04-22 18:55:00,59.1,30.7,30.28,NE,55,5.0,13.0,34,0.00,,,0.00,WUHU216DAVISVP2,2013-04-22 22:55:00,
2013-04-22 19:00:00,58.8,31.0,30.28,ENE,72,3.0,13.0,35,0.00,,,0.00,WUHU216DAVISVP2,2013-04-22 23:00:00,
2013-04-22 19:05:00,58.6,32.2,30.28,East,81,7.0,12.0,37,0.00,,,0.00,WUHU216DAVISVP2,2013-04-22 23:05:00,
2013-04-22 19:10:00,58.5,31.4,30.28,ENE,72,6.0,17.0,36,0.00,,,0.00,WUHU216DAVISVP2,2013-04-22 23:10:00,
2013-04-22 19:15:00,58.4,31.3,30.28,NNE,23,6.0,17.0,36,0.00,,,0.00,WUHU216DAVISVP2,2013-04-22 23:15:00,
2013-04-22 19:20:00,58.4,32.0,30.28,ENE,70,5.0,15.0,37,0.00,,,0.00,WUHU216DAVISVP2,2013-04-22 23:20:00,
2013-04-22 19:25:00,58.3,31.9,30.28,NE,56,6.0,15.0,37,0.00,,,0.00,WUHU216DAVISVP2,2013-04-22 23:25:00,
2013-04-22 19:30:00,58.3,33.3,30.28,ENE,57,7.0,13.0,39,0.00,,,0.00,WUHU216DAVISVP2,2013-04-22 23:30:00,
2013-04-22 19:35:00,58.2,33.3,30.28,NE,45,9.0,11.0,39,0.00,,,0.00,WUHU216DAVISVP2,2013-04-22 23:35:00,
2013-04-22 19:40:00,58.0,33.0,30.28,NE,56,6.0,13.0,39,0.00,,,0.00,WUHU216DAVISVP2,2013-04-22 23:40:00,
2013-04-22 19:45:00,57.9,33.6,30.28,ENE,57,5.0,13.0,40,0.00,,,0.00,WUHU216DAVISVP2,2013-04-22 23:45:00,
2013-04-22 19:50:00,57.8,32.8,30.28,NE,55,7.0,12.0,39,0.00,,,0.00,WUHU216DAVISVP2,2013-04-22 23:50:00,
2013-04-22 19:55:00,57.6,33.3,30.29,ENE,62,6.0,15.0,40,0.00,,,0.00,WUHU216DAVISVP2,2013-04-22 23:55:00,
2013-04-22 20:00:00,57.4,33.1,30.29,NE,47,7.0,15.0,40,0.00,,,0.00,WUHU216DAVISVP2,2013-04-23 00:00:00,
2013-04-22 20:05:00,57.2,33.6,30.28,ENE,65,5.0,13.0,41,0.00,,,0.00,WUHU216DAVISVP2,2013-04-23 00:05:00,
2013-04-22 20:10:00,57.0,33.4,30.29,NE,49,9.0,13.0,41,0.00,,,0.00,WUHU216DAVISVP2,2013-04-23 00:10:00,
2013-04-22 20:15:00,56.8,33.3,30.29,East,82,8.0,11.0,41,0.00,,,0.00,WUHU216DAVISVP2,2013-04-23 00:15:00,
2013-04-22 20:20:00,56.7,33.8,30.29,ENE,61,4.0,11.0,42,0.00,,,0.00,WUHU216DAVISVP2,2013-04-23 00:20:00,
2013-04-22 20:25:00,56.4,34.0,30.29,ENE,63,3.0,10.0,43,0.00,,,0.00,WUHU216DAVISVP2,2013-04-23 00:25:00,
2013-04-22 20:30:00,56.1,34.5,30.29,NE,47,1.0,10.0,44,0.00,,,0.00,WUHU216DAVISVP2,2013-04-23 00:30:00,
2013-04-22 20:35:00,55.9,34.8,30.29,ENE,63,3.0,8.0,45,0.00,,,0.00,WUHU216DAVISVP2,2013-04-23 00:35:00,
2013-04-22 20:40:00,55.6,34.5,30.29,ENE,63,1.0,5.0,45,0.00,,,0.00,WUHU216DAVISVP2,2013-04-23 00:40:00,
2013-04-22 20:45:00,55.4,34.3,30.29,ENE,70,2.0,4.0,45,0.00,,,0.00,WUHU216DAVISVP2,2013-04-23 00:45:00,
2013-04-22 20:50:00,55.2,34.7,30.30,ENE,63,3.0,4.0,46,0.00,,,0.00,WUHU216DAVISVP2,2013-04-23 00:50:00,
2013-04-22 20:55:00,55.0,35.1,30.30,ENE,63,4.0,5.0,47,0.00,,,0.00,WUHU216DAVISVP2,2013-04-23 00:55:00,
2013-04-22 21:00:00,54.9,35.5,30.30,ENE,65,3.0,5.0,48,0.00,,,0.00,WUHU216DAVISVP2,2013-04-23 01:00:00,
2013-04-22 21:05:00,54.9,35.5,30.30,ENE,65,3.0,7.0,48,0.00,,,0.00,WUHU216DAVISVP2,2013-04-23 01:05:00,
2013-04-22 21:10:00,54.9,36.1,30.30,ENE,61,6.0,8.0,49,0.00,,,0.00,WUHU216DAVISVP2,2013-04-23 01:10:00,
2013-04-22 21:15:00,54.9,36.6,30.30,NE,39,6.0,8.0,50,0.00,,,0.00,WUHU216DAVISVP2,2013-04-23 01:15:00,
2013-04-22 21:20:00,55.0,36.7,30.30,ENE,60,4.0,11.0,50,0.00,,,0.00,WUHU216DAVISVP2,2013-04-23 01:20:00,
2013-04-22 21:25:00,55.0,37.2,30.30,ENE,63,3.0,11.0,51,0.00,,,0.00,WUHU216DAVISVP2,2013-04-23 01:25:00,
2013-04-22 21:30:00,54.9,37.1,30.30,ENE,67,5.0,10.0,51,0.00,,,0.00,WUHU216DAVISVP2,2013-04-23 01:30:00,
2013-04-22 21:35:00,54.9,37.6,30.31,ENE,57,3.0,10.0,52,0.00,,,0.00,WUHU216DAVISVP2,2013-04-23 01:35:00,
2013-04-22 21:40:00,54.9,37.6,30.31,East,87,1.0,10.0,52,0.00,,,0.00,WUHU216DAVISVP2,2013-04-23 01:40:00,
2013-04-22 21:45:00,54.8,38.5,30.31,NE,50,5.0,10.0,54,0.00,,,0.00,WUHU216DAVISVP2,2013-04-23 01:45:00,
2013-04-22 21:50:00,54.7,38.8,30.31,ENE,74,7.0,11.0,55,0.00,,,0.00,WUHU216DAVISVP2,2013-04-23 01:50:00,
2013-04-22 21:55:00,54.5,39.2,30.31,West,262,2.0,11.0,56,0.00,,,0.00,WUHU216DAVISVP2,2013-04-23 01:55:00,
2013-04-22 22:00:00,54.4,39.1,30.31,NE,53,6.0,13.0,56,0.00,,,0.00,WUHU216DAVISVP2,2013-04-23 02:00:00,
2013-04-22 22:05:00,54.3,39.5,30.31,ENE,65,5.0,13.0,57,0.00,,,0.00,WUHU216DAVISVP2,2013-04-23 02:05:00,
2013-04-22 22:10:00,54.1,39.3,30.31,NE,56,4.0,11.0,57,0.00,,,0.00,WUHU216DAVISVP2,2013-04-23 02:10:00,
2013-04-22 22:15:00,54.0,39.6,30.31,ENE,68,3.0,11.0,58,0.00,,,0.00,WUHU216DAVISVP2,2013-04-23 02:15:00,
2013-04-22 22:20:00,53.9,39.5,30.31,ENE,63,4.0,10.0,58,0.00,,,0.00,WUHU216DAVISVP2,2013-04-23 02:20:00,
2013-04-22 22:25:00,53.7,39.3,30.31,East,81,5.0,13.0,58,0.00,,,0.00,WUHU216DAVISVP2,2013-04-23 02:25:00,
2013-04-22 22:30:00,53.6,39.7,30.32,NNW,346,2.0,13.0,59,0.00,,,0.00,WUHU216DAVISVP2,2013-04-23 02:30:00,
2013-04-22 22:35:00,53.5,39.6,30.31,ENE,61,12.0,13.0,59,0.00,,,0.00,WUHU216DAVISVP2,2013-04-23 02:35:00,
2013-04-22 22:40:00,53.4,39.5,30.31,NE,53,10.0,13.0,59,0.00,,,0.00,WUHU216DAVISVP2,2013-04-23 02:40:00,
2013-04-22 22:45:00,53.4,39.5,30.31,SSE,151,2.0,15.0,59,0.00,,,0.00,WUHU216DAVISVP2,2013-04-23 02:45:00,
2013-04-22 22:50:00,53.3,39.3,30.31,East,79,12.0,17.0,59,0.00,,,0.00,WUHU216DAVISVP2,2013-04-23 02:50:00,
2013-04-22 22:55:00,53.2,38.9,30.31,East,86,12.0,17.0,58,0.00,,,0.00,WUHU216DAVISVP2,2013-04-23 02:55:00,
2013-04-22 23:00:00,53.1,39.1,30.31,East,91,3.0,16.0,59,0.00,,,0.00,WUHU216DAVISVP2,2013-04-23 03:00:00,
2013-04-22 23:05:00,53.0,39.6,30.31,ENE,63,6.0,14.0,60,0.00,,,0.00,WUHU216DAVISVP2,2013-04-23 03:05:00,
2013-04-22 23:10:00,52.9,39.5,30.31,NE,55,11.0,14.0,60,0.00,,,0.00,WUHU216DAVISVP2,2013-04-23 03:10:00,
2013-04-22 23:15:00,52.8,39.4,30.31,ENE,70,9.0,14.0,60,0.00,,,0.00,WUHU216DAVISVP2,2013-04-23 03:15:00,
2013-04-22 23:20:00,52.8,39.3,30.31,NE,43,7.0,14.0,60,0.00,,,0.00,WUHU216DAVISVP2,2013-04-23 03:20:00,
2013-04-22 23:25:00,52.7,38.9,30.31,North,358,6.0,18.0,59,0.00,,,0.00,WUHU216DAVISVP2,2013-04-23 03:25:00,
2013-04-22 23:30:00,52.6,38.8,30.31,ENE,63,11.0,18.0,59,0.00,,,0.00,WUHU216DAVISVP2,2013-04-23 03:30:00,
2013-04-22 23:35:00,52.5,38.7,30.31,NE,39,6.0,16.0,59,0.00,,,0.00,WUHU216DAVISVP2,2013-04-23 03:35:00,
2013-04-22 23:40:00,52.4,39.0,30.31,ENE,57,7.0,16.0,60,0.00,,,0.00,WUHU216DAVISVP2,2013-04-23 03:40:00,
2013-04-22 23:45:00,52.3,38.9,30.31,East,82,7.0,13.0,60,0.00,,,0.00,WUHU216DAVISVP2,2013-04-23 03:45:00,
2013-04-22 23:50:00,52.3,38.8,30.31,ENE,60,5.0,13.0,60,0.00,,,0.00,WUHU216DAVISVP2,2013-04-23 03:50:00,
2013-04-22 23:55:00,52.2,39.3,30.31,ENE,57,11.0,14.0,61,0.00,,,0.00,WUHU216DAVISVP2,2013-04-23 03:55:00,